Voltar ao catálogo

CZ-3B DEB

AtivoGTO
NORAD 40160·DEBRIS·🇨🇳 China

Lançado Sep 4, 2010 de Xichang Satellite Launch Center

Loading…

TLE

ObsoletoSource: Space-Track

Época: Sep 12, 2026, 02:24 UTC

1 40160U 10042M   26255.10060916 -.00000044  00000-0  00000-0 0  9990
2 40160  26.4999 235.9899 7283973  24.6907   4.9675  1.89894590 88879

Acompanhe CZ-3B DEB em tempo real com AllMySat

Download on the App Store